Albion, NE

3:06 AM CDT on March 29, 2017 (GMT -0500)
Albion Municipal

Weather History for KBVN - October, 2012

Change the Weather History Date:

Wednesday, October 17, 2012

  Actual Average (KOFK) Record (KOFK)
Temperature  
Mean Temperature 58 °F -  
Max Temperature 66 °F 62 °F 89 °F (1961)
Min Temperature 50 °F 37 °F 16 °F (1922)
Degree Days  
Heating Degree Days 8    
Growing Degree Days 8 (Base 50)    
Moisture  
Dew Point 28 °F    
Average Humidity 35    
Maximum Humidity 61    
Minimum Humidity 14    
Precipitation  
Precipitation 0.00 in - - ()
Sea Level Pressure  
Sea Level Pressure 29.53 in    
Wind  
Wind Speed 21 mph (WNW)    
Max Wind Speed 45 mph    
Max Gust Speed 53 mph    
Visibility 10 miles    
Events      
Averages and records for this station are not official NWS values.
T = Trace of Precipitation, MM = Missing Value Source: NWS Daily Summary

Daily Weather History Graph

Daily Weather History Graph

Search for Another Location

Airport or City:

Trip Planner

Search our weather history database for the weather conditions in past years. The results will help you decide how hot, cold, wet, or windy it might be!

Date:

Astronomy

Oct. 17, 2012 Rise Set
Actual Time 7:47 AM CDT 6:46 PM CDT
Civil Twilight 7:19 AM CDT 7:15 PM CDT
Nautical Twilight 6:46 AM CDT 7:47 PM CDT
Astronomical Twilight 6:14 AM CDT 8:19 PM CDT
Moon 10:25 AM CDT (10/17) 8:21 PM CDT (10/17)
Length of Visible Light 11h 55m
Length of Day
10h 59m
Waxing Crescent, 7% of the Moon is Illuminated
Oct 17
Waxing Crescent
Oct 21
First Quarter
Oct 29
Full
Nov 6
Last Quarter
Nov 13
New

Hourly Weather History & Observations

Time (CDT) Temp. Dew Point Humidity Pressure Visibility Wind Dir Wind Speed Gust Speed Precip Events Conditions
12:15 AM 65.1 °F 39.7 °F 39% 29.35 in 10.0 mi SSW 11.5 mph 17.3 mph N/A   Clear
12:35 AM 65.7 °F 40.1 °F 39% 29.35 in 10.0 mi SSW 11.5 mph - N/A   Clear
12:55 AM 65.7 °F 40.3 °F 39% 29.35 in 10.0 mi SSW 12.7 mph 18.4 mph N/A   Clear
1:15 AM 65.3 °F 40.5 °F 40% 29.34 in 10.0 mi SSW 13.8 mph - N/A   Clear
1:35 AM 64.6 °F 41.0 °F 42% 29.34 in 10.0 mi SW 11.5 mph - N/A   Clear
1:55 AM 64.9 °F 41.0 °F 42% 29.32 in 10.0 mi SSW 11.5 mph - N/A   Clear
2:15 AM 64.6 °F 41.4 °F 43% 29.33 in 10.0 mi SW 12.7 mph - N/A   Clear
2:35 AM 65.3 °F 41.0 °F 41% 29.34 in 10.0 mi WSW 12.7 mph - N/A   Clear
2:55 AM 64.9 °F 45.7 °F 50% 29.39 in 7.0 mi WNW 27.6 mph 40.3 mph N/A   Clear
3:15 AM 62.2 °F 44.8 °F 53% 29.40 in 10.0 mi NW 29.9 mph 39.1 mph N/A   Clear
3:35 AM 60.8 °F 44.4 °F 55% 29.41 in 10.0 mi NW 24.2 mph 35.7 mph N/A   Scattered Clouds
3:55 AM 59.9 °F 44.2 °F 56% 29.41 in 10.0 mi NW 24.2 mph 34.5 mph N/A   Scattered Clouds
4:15 AM 59.5 °F 44.2 °F 57% 29.42 in 10.0 mi NW 20.7 mph 33.4 mph N/A   Mostly Cloudy
4:35 AM 59.4 °F 44.2 °F 57% 29.44 in 10.0 mi NW 23.0 mph 29.9 mph N/A   Overcast
4:55 AM 59.2 °F 44.2 °F 58% 29.45 in 10.0 mi NW 21.9 mph 28.8 mph N/A   Overcast
5:15 AM 58.3 °F 44.1 °F 59% 29.47 in 10.0 mi NW 17.3 mph 31.1 mph N/A   Mostly Cloudy
5:35 AM 57.6 °F 43.9 °F 60% 29.46 in 10.0 mi NW 18.4 mph 31.1 mph N/A   Clear
5:55 AM 57.4 °F 43.2 °F 59% 29.47 in 10.0 mi NW 13.8 mph 21.9 mph N/A   Scattered Clouds
6:15 AM 56.7 °F 42.6 °F 59% 29.47 in 10.0 mi NW 16.1 mph 21.9 mph N/A   Scattered Clouds
6:35 AM 56.5 °F 42.4 °F 59% 29.48 in 10.0 mi WNW 12.7 mph 20.7 mph N/A   Clear
6:55 AM 55.9 °F 42.8 °F 61% 29.48 in 10.0 mi NW 17.3 mph 25.3 mph N/A   Scattered Clouds
7:15 AM 55.6 °F 38.5 °F 53% 29.50 in 10.0 mi NW 16.1 mph 27.6 mph N/A   Scattered Clouds
7:35 AM 55.2 °F 31.8 °F 41% 29.50 in 10.0 mi NW 21.9 mph 28.8 mph N/A   Clear
7:55 AM 54.9 °F 30.0 °F 39% 29.51 in 10.0 mi NW 17.3 mph 27.6 mph N/A   Clear
8:15 AM 54.9 °F 29.3 °F 38% 29.52 in 10.0 mi NW 21.9 mph 31.1 mph N/A   Clear
8:35 AM 55.0 °F 29.7 °F 38% 29.53 in 10.0 mi NW 20.7 mph 29.9 mph N/A   Clear
8:55 AM 54.5 °F 29.1 °F 38% 29.53 in 10.0 mi NW 23.0 mph 29.9 mph N/A   Scattered Clouds
9:15 AM 55.0 °F 28.2 °F 36% 29.55 in 10.0 mi NW 21.9 mph 34.5 mph N/A   Scattered Clouds
9:35 AM 56.3 °F 27.9 °F 34% 29.55 in 10.0 mi NW 26.5 mph 35.7 mph N/A   Clear
9:55 AM 55.8 °F 29.8 °F 37% 29.56 in 10.0 mi NW 29.9 mph 40.3 mph N/A   Scattered Clouds
10:15 AM 55.8 °F 32.0 °F 41% 29.56 in 10.0 mi NW 35.7 mph 44.9 mph N/A   Scattered Clouds
10:35 AM 55.0 °F 32.7 °F 43% 29.57 in 7.0 mi NW 33.4 mph 44.9 mph N/A   Scattered Clouds
10:55 AM 55.0 °F 32.7 °F 43% 29.58 in 10.0 mi NW 31.1 mph 46.0 mph N/A   Mostly Cloudy
11:15 AM 56.5 °F 32.5 °F 40% 29.58 in 10.0 mi NW 33.4 mph 47.2 mph N/A   Scattered Clouds
11:35 AM 55.8 °F 32.0 °F 41% 29.58 in 10.0 mi WNW 31.1 mph 41.4 mph N/A   Mostly Cloudy
11:55 AM 56.3 °F 31.8 °F 39% 29.58 in 10.0 mi NW 32.2 mph 40.3 mph N/A   Overcast
12:15 PM 55.9 °F 31.8 °F 40% 29.59 in 10.0 mi NW 29.9 mph 40.3 mph N/A   Overcast
12:35 PM 57.0 °F 32.0 °F 39% 29.59 in 10.0 mi NW 32.2 mph 46.0 mph N/A   Overcast
12:55 PM 56.1 °F 32.5 °F 41% 29.60 in 10.0 mi NW 34.5 mph 44.9 mph N/A   Overcast
1:15 PM 55.4 °F 31.8 °F 41% 29.59 in 10.0 mi NW 32.2 mph 40.3 mph N/A   Overcast
1:35 PM 57.7 °F 29.1 °F 34% 29.58 in 10.0 mi NW 26.5 mph 40.3 mph N/A   Scattered Clouds
1:55 PM 59.2 °F 24.8 °F 27% 29.56 in 10.0 mi NW 33.4 mph 43.7 mph N/A   Scattered Clouds
2:15 PM 59.4 °F 23.2 °F 25% 29.56 in 10.0 mi NW 32.2 mph 41.4 mph N/A   Scattered Clouds
2:35 PM 61.2 °F 21.4 °F 22% 29.56 in 10.0 mi NW 29.9 mph 47.2 mph N/A   Mostly Cloudy
2:55 PM 61.7 °F 18.3 °F 19% 29.55 in 10.0 mi WNW 28.8 mph 41.4 mph N/A   Mostly Cloudy
3:15 PM 60.4 °F 16.7 °F 18% 29.56 in 10.0 mi NW 31.1 mph 46.0 mph N/A   Overcast
3:35 PM 60.6 °F 13.6 °F 16% 29.55 in 10.0 mi NW 44.9 mph 52.9 mph N/A   Scattered Clouds
3:55 PM 60.8 °F 11.8 °F 15% 29.56 in 7.0 mi NW 38.0 mph 52.9 mph N/A   Clear
4:15 PM 61.0 °F 11.7 °F 14% 29.56 in 7.0 mi NW 34.5 mph 47.2 mph N/A   Scattered Clouds
4:35 PM 59.7 °F 10.4 °F 14% 29.57 in 7.0 mi NW 35.7 mph 51.8 mph N/A   Mostly Cloudy
4:55 PM 59.5 °F 11.1 °F 15% 29.58 in 10.0 mi NNW 29.9 mph 44.9 mph N/A   Scattered Clouds
5:15 PM 60.3 °F 11.3 °F 15% 29.58 in 10.0 mi NW 33.4 mph 44.9 mph N/A   Clear
5:35 PM 60.3 °F 11.8 °F 15% 29.59 in 10.0 mi NW 34.5 mph 44.9 mph N/A   Clear
5:55 PM 59.0 °F 10.9 °F 15% 29.60 in 10.0 mi NW 25.3 mph 40.3 mph N/A   Clear
6:15 PM 58.1 °F 12.2 °F 16% 29.61 in 10.0 mi NW 21.9 mph 38.0 mph N/A   Scattered Clouds
6:55 PM 56.7 °F 14.4 °F 19% 29.62 in 10.0 mi NW 26.5 mph 29.9 mph N/A   Mostly Cloudy
7:15 PM 55.8 °F 13.8 °F 19% 29.62 in 10.0 mi NW 21.9 mph 29.9 mph N/A   Scattered Clouds
7:35 PM 54.9 °F 14.4 °F 20% 29.63 in 10.0 mi WNW 13.8 mph 21.9 mph N/A   Clear
7:55 PM 54.1 °F 14.7 °F 21% 29.63 in 10.0 mi WNW 16.1 mph 24.2 mph N/A   Clear
8:15 PM 53.8 °F 15.3 °F 22% 29.64 in 10.0 mi WNW 17.3 mph 25.3 mph N/A   Clear
8:35 PM 52.9 °F 15.8 °F 23% 29.64 in 10.0 mi WNW 18.4 mph 24.2 mph N/A   Clear
8:55 PM 52.9 °F 16.7 °F 24% 29.64 in 10.0 mi WNW 17.3 mph 20.7 mph N/A   Clear
9:15 PM 53.1 °F 17.4 °F 25% 29.64 in 10.0 mi WNW 20.7 mph 28.8 mph N/A   Clear
9:35 PM 53.1 °F 18.1 °F 25% 29.64 in 10.0 mi WNW 21.9 mph 28.8 mph N/A   Clear
9:55 PM 52.7 °F 18.3 °F 26% 29.64 in 10.0 mi WNW 21.9 mph 26.5 mph N/A   Clear
10:15 PM 52.0 °F 18.5 °F 27% 29.65 in 10.0 mi WNW 20.7 mph 27.6 mph N/A   Clear
10:35 PM 51.4 °F 18.9 °F 28% 29.65 in 10.0 mi WNW 18.4 mph 24.2 mph N/A   Clear
10:55 PM 51.1 °F 19.4 °F 29% 29.65 in 10.0 mi WNW 15.0 mph 26.5 mph N/A   Scattered Clouds
11:15 PM 51.1 °F 19.2 °F 29% 29.65 in 10.0 mi WNW 20.7 mph 33.4 mph N/A   Clear
11:35 PM 50.9 °F 19.2 °F 29% 29.65 in 10.0 mi WNW 19.6 mph 32.2 mph N/A   Clear
11:55 PM 50.2 °F 19.4 °F 30% 29.64 in 10.0 mi WNW 18.4 mph 32.2 mph N/A   Clear